Regional Weather Roundup
Issued by NWS Newport/Morehead, NC

Current Version | Previous Version | Graphics & Text | Print | Product List | Glossary Off
Versions: 1 2 3 4 5 6 7 8 9 10 11 12 13 14 15 16 17 18 19 20 21 22 23 24 25 26 27 28 29 30 31 32 33 34 35 36 37 38 39 40 41 42 43 44 45 46 47 48 49 50

000
ASUS42 KMHX 201325
RWRMHX
WEATHER ROUNDUP FOR EASTERN NORTH CAROLINA
NATIONAL WEATHER SERVICE NEWPORT/MOREHEAD CITY NC
900 AM EDT WED SEP 20 2017

NOTE: "FAIR" INDICATES FEW OR NO CLOUDS BELOW 12,000 FEET
WITH NO SIGNIFICANT WEATHER AND/OR OBSTRUCTIONS TO VISIBILITY

NCZ015>017-031-032-045>047-102-103-201400-
NORTH COAST

CITY           SKY/WX    TMP DP  RH WIND       PRES   REMARKS
EDENTON        SUNNY     74  67  78 CALM      30.00R
ELIZABETH CITY MOSUNNY   74  68  81 W10       29.97R
KITTY HAWK     CLOUDY    71  65  81 CALM      29.96R
MANTEO         CLOUDY    74  67  80 NW7       29.98R

$$

NCZ045>047-081-094-103-104-201400-
CENTRAL COAST

CITY           SKY/WX    TMP DP  RH WIND       PRES   REMARKS
FRISCO         CLOUDY    78  70  76 W9        29.98R

$$

NCZ095-097-098-100-101-201400-
SOUTHERN COAST

CITY           SKY/WX    TMP DP  RH WIND       PRES   REMARKS
BEAUFORT       SUNNY     76  67  73 NW7       30.01R
CEDAR ISLAND   NOT AVBL
JACKSONVILLE   MOSUNNY   73  68  84 W6        30.02R
PINEY ISLAND     N/A    N/A N/A N/A W13       30.00R
WILMINGTON     SUNNY     75  68  78 CALM      30.02S


$$

NCZ011>013-027>030-043-044-078>080-089-090>093-098-201400-
COASTAL PLAIN

CITY           SKY/WX    TMP DP  RH WIND       PRES   REMARKS
AHOSKIE          N/A     71  67  85 CALM      30.00R
CLINTON        SUNNY     72  68  88 CALM      30.03S
ELIZABETHTOWN  NOT AVBL
GOLDSBORO      SUNNY     71  71 100 W3        30.00R
GREENVILLE     SUNNY     73  68  83 CALM      30.03R
HAVELOCK       SUNNY     75  67  76 W6        30.02R
KENANSVILLE    SUNNY     73  66  78 W5        30.03R
KINSTON        SUNNY     72  66  83 CALM      30.02R
NEW BERN       SUNNY     73  68  84 W6        30.02R
RICHLANDS      SUNNY     73  68  84 W3        30.03R
ROCKY MOUNT    SUNNY     71  68  90 CALM      30.02R
WASHINGTON     SUNNY     74  67  80 CALM      30.01R
WHITEVILLE     SUNNY     73  67  81 CALM      30.03S

$$

AMZ130-135-150-152-154-156-158-170-250-252-270-ANZ085-086-088-633-658-670-201400-
MARINE OBSERVATIONS

STATION/POSITION TIME  TEMP    WIND        PRES    WAVE   SWELL
                       AIR SEA DIR/SP/G            HT/PER HT/PER
                 (UTC) (F)     (DEG/KT/KT) (MB)    (FT/S) (FT/S)
CHESAPEAKE LIGHT NOT AVBL
64 E VA BEACH    1250   71 69  310/ 14/ 16 1013.0   10/10   8/10
DUCK             1300   72 74  290/ 10/ 13 1014.1
2 E DUCK         1300      75                N/A     6/10   3/12
OREGON INLET     1300   73 73  280/  9/ 11 1014.6
13E OREGON INLT  1248      74                N/A     7/10   7/10
HATTERAS CG      1300   75 75  300/ 12/ 14 1015.3
DIAMOND BUOY     1250   75 74  290/ 12/ 14 1014.8    5/11   5/11
CAPE LOOKOUT     1300   77     280/  8/  9 1015.8
BEAUFORT LAB     1300   76 74  320/  3/  6 1015.6
30 SE NEW RVR IN 1308   79     300/  6/ 10 1016.2
30 SE NEW RVR IN NOT AVBL
27 SE WRIGHTSVLE 1308   78 79  270/ 10/ 16 1016.4
5 SE WRIGHTSVLE  1308   76 78  310/ 12/ 16 1016.3
225 S CAPE HAT   1250   79 80  290/  8/ 10 1016.6    8/11   8/11
41 SE CHARLESTON 1300   79 82  290/  6/ 10 1016.8

$$



USA.gov is the U.S. government's official web portal to all federal, state and local government web resources and services.